Flag for Canada Weather past 2 weeks in Burnaby, British Columbia, Canada

Now
50 °F

Cloudy.


Feels Like: 47 °F
Forecast: 46 / 49 °F
Wind: 7 mph from Southwest

Location: Vancouver International Air-Port

Current Time: Jan 27, 2015 at 3:53:43 PM

Latest Report: Jan 27, 2015 at 3:00 PM


Visibility: 15 mi

Pressure: 30.09 "Hg

Humidity: 94%

Dew point: 48 °F

Location of BurnabyLocation

Historic Weather in Burnaby — Graph

°F

Burnaby temperature yesterday

Maximum temperature yesterday: 55 °F (at 1:00 PM)
Minimum temperature yesterday: 41 °F (at 12:00 AM)
Average temperature yesterday: 45 °F

Past Weeks' High & Low Weather Summary

 TemperatureHumidityPressure
High57 °F (Jan 25, 1:00 PM)100% (Jan 12, 6:00 PM)30.50 "Hg (Jan 12, 6:00 PM)
Low28 °F (Jan 14, 3:00 AM)62% (Jan 16, 3:00 PM)29.46 "Hg (Jan 18, 1:00 AM)
Average44 °F92%30.18 "Hg
* Reported Jan 12 2:00 PM — Jan 27 2:00 PM, Burnaby, Weather by CustomWeather, © 2014

Note: Actual official high and low records may vary slightly from our data, if they occured in-between our weather recording intervals... More about our weather records

Advertising

Burnaby weather history for previous 24 hours

 ConditionsComfort  
Time TempWeatherWind HumidityBarometerVisibility
2:00 PM
Jan 27
52 °FMostly cloudy.8 mph88%30.07 "Hg15 mi
1:00 PM52 °FMore clouds than sun.8 mph94%30.07 "Hg15 mi
12:00 PM52 °FCloudy.7 mph88%30.06 "Hg15 mi
11:00 AM50 °FMostly cloudy.12 mph94%30.06 "Hg15 mi
10:00 AM50 °FMostly cloudy.10 mph94%30.04 "Hg15 mi
9:00 AM48 °FCloudy.8 mph94%30.03 "Hg15 mi
8:00 AM46 °FMostly cloudy.7 mph100%30.01 "Hg15 mi
7:00 AM46 °FOvercast.6 mph93%29.99 "Hg15 mi
6:00 AM46 °FOvercast.8 mph93%29.98 "Hg15 mi
5:00 AM45 °FPartly cloudy.5 mph100%29.98 "Hg15 mi
4:00 AM46 °FMostly cloudy.12 mph93%29.98 "Hg15 mi
3:00 AM45 °FOvercast.6 mph100%29.98 "Hg15 mi
2:00 AM45 °FQuite cool.6 mph100%29.98 "Hg1 mi
1:51 AM45 °FQuite cool.5 mph100%29.98 "Hg1 mi
1:00 AM45 °FFog.5 mph100%29.97 "Hg1 mi
12:00 AM45 °FQuite cool.9 mph100%29.97 "Hg1 mi
11:00 PM
Jan 26
46 °FFog.9 mph93%29.95 "Hg0 mi
10:00 PM45 °FFog.9 mph93%29.95 "Hg0 mi
9:00 PM43 °FPassing clouds.12 mph100%29.93 "Hg15 mi
8:00 PM43 °FPassing clouds.3 mph93%29.93 "Hg20 mi
7:00 PM43 °FFog.2 mph100%29.91 "Hg20 mi
6:00 PM43 °FPassing clouds.3 mph93%29.90 "Hg20 mi
5:00 PM45 °FPassing clouds.5 mph93%29.90 "Hg20 mi
4:00 PM46 °FPartly sunny.5 mph93%29.89 "Hg20 mi
3:00 PM46 °FPartly sunny.8 mph93%29.89 "Hg20 mi
Weather by CustomWeather, © 2014

See weather overviewHow to use our weather pages